Flag for Poland Weather past 2 weeks in Rzeszów, Poland

Now
68 °F

Sunny.


Feels Like: 68 °F
Forecast: 63 / 85 °F
Wind: 2 mph from North

Location: Rzeszow-Jasionka

Current Time: Jul 30, 2014 at 7:57:08 AM

Latest Report: Jul 30, 2014 at 7:30 AM


Visibility: 10 mi

Pressure: 29.83 "Hg

Humidity: 88%

Dew point: 64 °F

Location of RzeszówLocation

Historic Weather in Rzeszów — Graph

°F

Rzeszów temperature yesterday

Maximum temperature yesterday: 84 °F (at 2:00 PM)
Minimum temperature yesterday: 61 °F (at 5:30 AM)
Average temperature yesterday: 72 °F

Past Weeks' High & Low Weather Summary

 TemperatureHumidityPressure
High84 °F (Jul 15, 1:00 PM)100% (Jul 15, 6:00 AM)30.12 "Hg (Jul 15, 6:00 AM)
Low57 °F (Jul 15, 6:00 AM)29% (Jul 20, 3:00 PM)29.83 "Hg (Jul 21, 3:30 AM)
Average71 °F75%29.98 "Hg
* Reported Jul 15 6:00 AM — Jul 30 6:30 AM, Rzeszów, Weather by CustomWeather, © 2014

Note: Actual official high and low records may vary slightly from our data, if they occured in-between our weather recording intervals... More about our weather records

Advertising

Rzeszów weather history for previous 24 hours

 ConditionsComfort  
Time TempWeatherWind HumidityBarometerVisibility
6:30 AM
Jul 30
63 °FSunny.5 mph94%29.83 "Hg10 mi
6:00 AM63 °FSunny.6 mph94%29.83 "Hg10 mi
5:30 AM61 °FClear.6 mph100%29.83 "Hg10 mi
5:00 AM63 °FClear.8 mph94%29.83 "Hg10 mi
4:30 AM61 °FClear.6 mph94%29.83 "Hg10 mi
4:00 AM61 °FClear.6 mph94%29.83 "Hg10 mi
3:30 AM63 °FClear.6 mph94%29.83 "Hg10 mi
3:00 AM63 °FClear.6 mph94%29.83 "Hg10 mi
2:30 AM63 °FClear.3 mph94%29.86 "Hg10 mi
2:00 AM63 °FClear.3 mph94%29.86 "Hg10 mi
1:30 AM63 °FClear.3 mph94%29.86 "Hg10 mi
1:00 AM63 °FClear.5 mph94%29.86 "Hg10 mi
12:30 AM64 °FClear.5 mph94%29.86 "Hg10 mi
12:00 AM64 °FClear.5 mph94%29.86 "Hg10 mi
11:30 PM
Jul 29
66 °FClear.3 mph88%29.86 "Hg10 mi
11:00 PM66 °FClear.5 mph88%29.86 "Hg10 mi
10:30 PM66 °FClear.5 mph83%29.86 "Hg10 mi
10:00 PM66 °FClear.5 mph88%29.86 "Hg10 mi
9:30 PM68 °FClear.3 mph78%29.86 "Hg10 mi
9:00 PM68 °FSunny.5 mph83%29.86 "Hg10 mi
8:30 PM70 °FSunny.3 mph78%29.83 "Hg10 mi
8:00 PM70 °FSunny.5 mph78%29.83 "Hg10 mi
7:30 PM70 °FSunny.5 mph78%29.83 "Hg10 mi
7:00 PM72 °FSunny.7 mph73%29.83 "Hg10 mi
6:30 PM72 °FSunny.5 mph73%29.83 "Hg10 mi
6:00 PM72 °FSunny.6 mph73%29.86 "Hg10 mi
5:30 PM72 °FPassing clouds.6 mph73%29.86 "HgN/A
5:00 PM73 °FPassing clouds.12 mph69%29.86 "HgN/A
4:30 PM75 °FPassing clouds.10 mph74%29.86 "HgN/A
4:00 PM81 °FPassing clouds.8 mph48%29.83 "HgN/A
3:30 PM82 °FPassing clouds.14 mph37%29.83 "HgN/A
3:00 PM82 °FScattered clouds.16 mph40%29.83 "HgN/A
2:30 PM82 °FScattered clouds.14 mph51%29.83 "HgN/A
2:00 PM84 °FScattered clouds.12 mph45%29.83 "HgN/A
1:30 PM82 °FPartly sunny.8 mph51%29.86 "HgN/A
1:00 PM82 °FPartly sunny.9 mph51%29.86 "HgN/A
12:30 PM82 °FPassing clouds.8 mph48%29.86 "HgN/A
12:00 PM82 °FPassing clouds.10 mph51%29.86 "HgN/A
11:30 AM81 °FPassing clouds.6 mph62%29.89 "HgN/A
11:00 AM81 °FPassing clouds.8 mph62%29.89 "HgN/A
10:30 AM79 °FPassing clouds.6 mph65%29.89 "HgN/A
10:00 AM79 °FPassing clouds.5 mph61%29.89 "HgN/A
9:30 AM77 °FPassing clouds.5 mph65%29.89 "HgN/A
9:00 AM75 °FPassing clouds.3 mph69%29.89 "HgN/A
8:30 AM73 °FSunny.2 mph74%29.89 "Hg10 mi
8:00 AM70 °FSunny.2 mph83%29.89 "Hg10 mi
7:30 AM68 °FSunny.3 mph88%29.89 "Hg10 mi
7:00 AM66 °FSunny.5 mph94%29.89 "Hg10 mi
Weather by CustomWeather, © 2014

See weather overviewHow to use our weather pages